This is the latest recevied weather packets stored in our database for station/object N5CSU. If no packets are shown the sender has not sent any weather packets the latest 10 day(s).
| Time | Temp. | Humidity | Pressure | Rain* | Wind** | Luminosity | Snow |
|---|---|---|---|---|---|---|---|
| 1778251903 | 20° C | 73% | 1014.5 hPa | 0 mm | - | 26 W/m² | - |
| 1778251601 | 20° C | 72% | 1014.6 hPa | 0 mm | - | 24 W/m² | - |
| 1778251298 | 20° C | 72% | 1014.4 hPa | 0 mm | - | 26 W/m² | - |
| 1778250996 | 19.44° C | 74% | 1014.6 hPa | 0 mm | - | 26 W/m² | - |
| 1778250692 | 19.44° C | 75% | 1014.6 hPa | 0 mm | - | 22 W/m² | - |
| 1778250389 | 19.44° C | 74% | 1014.8 hPa | 0 mm | - | 20 W/m² | - |
| 1778250086 | 19.44° C | 73% | 1014.7 hPa | 0 mm | - | 20 W/m² | - |
| 1778249782 | 19.44° C | 74% | 1014.8 hPa | 0 mm | - | 13 W/m² | - |
| 1778249480 | 19.44° C | 74% | 1015.1 hPa | 0 mm | - | 15 W/m² | - |
| 1778249177 | 18.89° C | 76% | 1015.1 hPa | 0 mm | - | 21 W/m² | - |
| 1778248874 | 18.89° C | 75% | 1014.9 hPa | 0 mm | - | 14 W/m² | - |
| 1778248569 | 18.89° C | 76% | 1014.9 hPa | 0 mm | - | 11 W/m² | - |
| 1778248265 | 18.33° C | 77% | 1014.8 hPa | 0 mm | - | 10 W/m² | - |
| 1778247963 | 18.33° C | 77% | 1015 hPa | 0 mm | - | 10 W/m² | - |
| 1778247659 | 17.78° C | 80% | 1015 hPa | 0 mm | - | 10 W/m² | - |
| 1778247355 | 17.78° C | 83% | 1015.1 hPa | 0 mm | - | 9 W/m² | - |
| 1778247053 | 17.78° C | 83% | 1014.7 hPa | 0 mm | - | 8 W/m² | - |
| 1778246746 | 17.22° C | 84% | 1014.8 hPa | 0 mm | - | 9 W/m² | - |
| 1778246442 | 16.11° C | 88% | 1014.8 hPa | 0 mm | - | 7 W/m² | - |
| 1778246137 | 16.11° C | 93% | 1015 hPa | 0 mm | - | 7 W/m² | - |
| 1778245834 | 16.11° C | 94% | 1014.9 hPa | 0 mm | - | 7 W/m² | - |
| 1778245531 | 15.56° C | 94% | 1015.1 hPa | 0 mm | - | 6 W/m² | - |
| 1778245228 | 15.56° C | 95% | 1015.3 hPa | 0 mm | - | 6 W/m² | - |
| 1778244923 | 15.56° C | 95% | 1015.1 hPa | 0 mm | - | 6 W/m² | - |
| 1778244621 | 15° C | 95% | 1015.3 hPa | 0 mm | - | 6 W/m² | - |
* Rain latest hour (hover to see other rain measurements)
** Current wind speed in m/s (hover to see current wind gust speed)